Location: Pasadena-CA
(34.1440°N, 118.1100°W)
Time: 08:07:17
(UTC-07:00)

NOAA 19 - Visible Passes

Search period start: 26 June 2022 00:00
Search period end: 06 July 2022 00:00
Orbit: 840 x 861 km, 99.1° (Epoch: 26 June)

Date Brightness Start Highest point End Pass type
(mag) Time Alt. Az. Time Alt. Az. Time Alt. Az.
26 Jun 8.0 21:47:58 10° WSW 21:49:24 11° W 21:50:51 10° WNW visible
27 Jun 7.8 21:34:19 10° SW 21:37:24 15° W 21:40:29 10° WNW visible
28 Jun 7.6 21:21:28 10° SW 21:25:25 20° W 21:29:23 10° NW visible
29 Jun 7.2 21:08:55 10° SSW 21:13:27 26° W 21:18:01 10° NW visible
30 Jun 6.8 20:56:33 10° SSW 21:01:30 34° W 21:06:29 10° NW visible
01 Jul 6.4 20:44:20 10° S 20:49:35 44° W 20:54:50 10° NNW visible
02 Jul 5.9 20:32:16 10° S 20:37:40 58° WSW 20:43:07 10° NNW visible
05 Jul 7.8 21:40:30 10° WSW 21:43:04 13° W 21:45:39 10° WNW visible
